Погода в Хисарджике

Турция     39°15′10″N   29°13′31″E
темп.,
°C
ветер,
м/с
пор.,
м/с
влажн.,
%
обл.,
%
осадки,
мм/ч
давл.,
гПа
погр.,
м
27 июня, пн
пн2700:00+13ссв22800 0.0 101613
03:00+11ссв22872 0.0 101612
06:00+11с22933 0.0 101626
09:00+16ссв46590 0.0 1015808
12:00+21с56430 0.0 10141596
15:00+22ссз554094 0.0 10132132
18:00+19с565088 0.0 10131466
21:00+16ссв346691 0.0 1015279
28 июня, вт
вт2800:00+14зсз227672 0.0 101596
03:00+14сз238198 0.0 1014357
06:00+14сз2288100 0.3 1013265
09:00+15с358064 0.9 1014582
12:00+17сз337890 0.2 1014743
15:00+21ссз445537 0.4 10121438
18:00+20ссз45585 0.8 10121239
21:00+15ссз33794 0.9 101343
29 июня, ср
ср2900:00+13сз22925 0.0 101421
03:00+13ссз129495 0.0 101364
06:00+14ссз239550 0.2 1013165
09:00+17ссв356929 0.3 1012871
12:00+20с445459 0.3 10111502
15:00+22с444981 0.6 10101671
18:00+21с555335 0.3 10111427
21:00+16с34770 0.4 101259
30 июня, чт
чт3000:00+14св11870 0.0 101311
03:00+13ссв22910 0.0 101214
06:00+12ссв22930 0.0 101221
09:00+18ссв34630 0.0 1012644
12:00+23св44420 0.0 10111698
15:00+26ссв563396 0.0 10092857
18:00+23ссв67464 0.0 10101312
21:00+17ссв34740 0.0 101256
1 июля, пт
пт100:00+15ссв22850 0.0 101325
03:00+14ссв229024 0.0 101323
06:00+13ссв22910 0.0 101332
09:00+19ссв58560 0.0 1012831
12:00+24ссв78420 0.0 10121690
15:00+26ссв883742 0.0 10112351
18:00+24ссв88420 0.0 10111882
21:00+17ссв46700 0.0 1014126